This is the latest recevied weather packets stored in our database for station/object KK6LVQ-13. If no packets are shown the sender has not sent any weather packets the latest 10 day(s).
| Time | Temp. | Humidity | Pressure | Rain* | Wind** | Luminosity | Snow |
|---|---|---|---|---|---|---|---|
| 1778256266 | 11.67° C | 90% | 1024.7 hPa | 0 mm | - | 387 W/m² | - |
| 1778255961 | 11.11° C | 90% | 1024.6 hPa | 0 mm | - | 353 W/m² | - |
| 1778255659 | 11.11° C | 90% | 1024.6 hPa | 0 mm | - | 332 W/m² | - |
| 1778255356 | 11.11° C | 90% | 1024.4 hPa | 0 mm | - | 227 W/m² | - |
| 1778255053 | 11.11° C | 91% | 1024.5 hPa | 0 mm | - | 276 W/m² | - |
| 1778254750 | 10.56° C | 92% | 1024.5 hPa | 0 mm | - | 243 W/m² | - |
| 1778254447 | 10.56° C | 92% | 1024.4 hPa | 0 mm | - | 215 W/m² | - |
| 1778254143 | 10.56° C | 93% | 1024.7 hPa | 0 mm | - | 187 W/m² | - |
| 1778253839 | 10.56° C | 94% | 1024.5 hPa | 0 mm | - | 168 W/m² | - |
| 1778253536 | 10° C | 94% | 1024.5 hPa | 0 mm | - | 92 W/m² | - |
| 1778253233 | 10° C | 95% | 1024.5 hPa | 0 mm | - | 88 W/m² | - |
| 1778252929 | 10° C | 95% | 1024.4 hPa | 0 mm | - | 82 W/m² | - |
| 1778252626 | 10° C | 95% | 1024.5 hPa | 0 mm | - | 67 W/m² | - |
| 1778252322 | 9.44° C | 96% | 1024.5 hPa | 0 mm | - | 54 W/m² | - |
| 1778252018 | 9.44° C | 96% | 1024.6 hPa | 0 mm | - | 65 W/m² | - |
| 1778251715 | 9.44° C | 96% | 1024.5 hPa | 0 mm | - | 66 W/m² | - |
| 1778251414 | 9.44° C | 97% | 1024.5 hPa | 0 mm | - | 62 W/m² | - |
| 1778251111 | 9.44° C | 97% | 1024.7 hPa | 0 mm | - | 53 W/m² | - |
| 1778250807 | 8.89° C | 97% | 1024.5 hPa | 0 mm | - | 57 W/m² | - |
| 1778250505 | 8.89° C | 97% | 1024.3 hPa | 0 mm | - | 60 W/m² | - |
| 1778250201 | 8.89° C | 98% | 1024.3 hPa | 0 mm | - | 49 W/m² | - |
| 1778249898 | 8.89° C | 98% | 1024.2 hPa | 0 mm | - | 49 W/m² | - |
| 1778249595 | 8.33° C | 98% | 1024.3 hPa | 0 mm | - | 41 W/m² | - |
| 1778249292 | 8.33° C | 98% | 1024.3 hPa | 0 mm | - | 31 W/m² | - |
| 1778248989 | 8.33° C | 98% | 1023.9 hPa | 0 mm | - | 29 W/m² | - |
* Rain latest hour (hover to see other rain measurements)
** Current wind speed in m/s (hover to see current wind gust speed)